STARLINK-3312 (50850 NORAD) Tracking and Keplerian Element Data

This shows tracking and keplerian element data for the satellite.

Feedback or suggestion? Click here.




ElementValue
Catalog50850
NameSTARLINK-3312
Epoch Orbit383
Epoch Day22.91667824
Epoch Year2022
RAAN119.7364
Inclination53.2175
Eccentricity0.0001129
Argument of Perigee57.0359
Mean Anonmoly269.6591
Mean Motion15.75488162
Decay Rate-0.00821421
L11 50850U 22001AZ 22022.91667824 -.00821421 00000+0 -58323-2 0 9996
L22 50850 53.2175 119.7364 0001129 57.0359 269.6591 15.75488162 3835

Live tracking and technical data element details for STARLINK-3312 (NORAD 50850). STARLINK-3312 can be tracked NOW for your location showing map with azimuth and elevation plus other details from your city location.

Track the satellite on the map from your city or location and see movement details for azimuth, elevation, latitude, longitude, range, height, and movement on the map or in text.







IsCatalogInMostPopularTable: catalog: 50850, numindb: 3
Update: records affected: 1



GetName: 50850 STARLINK-3312

Hit Count: updated at: Mon, 24 Jan 2022 01:36:31 GMT